www.pogodaiklimat.ru

Погода и климат >> Архив погоды >> Казахстан >> Актогай


ПОГОДА в Актогае

  • Прогноз погоды в Актогае
  • Монитор погоды в Актогае
  • Климат города

АРХИВ ПОГОДЫ в Актогае

Время (UTC), дата Ветер
(напр.,м/с)
 
Видим.   Явления Облачность Т
(С)
Тd
(С)
f
(%)
Тe
(С)
Тes
(С)
Комфортность P
(гПа)
Po
(гПа)
Тmin
(С)
Tmax
(С)
R
(мм)
R24
(мм)
S
(см)
18 12.07 В 1 н/о ясно +17.0 +6.0 48 +18 +18 1003.0 916.3 +27.2 2
21 12.07 штиль 0 н/о ясно +16.0 +3.8 44 +16 +16 1002.7 915.8
00 13.07 СВ 1 50 км ясно +14.0 +3.4 49 +15 +15 1003.6 916.0
06 13.07 Ю 2 50 км 3/0
[Ac trans]
+25.0 +9.3 37 +26 +40 жарко 999.9 915.8 +13.9
09 13.07 СЗ 2 50 км 6/0
[Ac trans]
+27.0 +10.3 35 +28 +37 жарко 998.0 914.6
12 13.07 СЗ 3 50 км 6/6 1000 м
[Cu med, cong]
+27.5 +11.3 36 +28 +30 жарко 997.1 914.0
15 13.07 СВ 4 50 км 6/6 1000 м
[Cu med, cong]
+24.0 +12.2 48 +26 +26 жарко 998.7 914.5 +27.7
18 13.07 Ю 7 н/о 8/8 1000 м
[Cu med, cong]
+20.0 +10.0 53 +21 +21 комфорт 1001.3 915.7 +27.7
21 13.07 С 1 н/о 8/8 600 м
[Sc]
+17.0 +8.4 57 +18 +18 1000.7 914.3
00 14.07 штиль 0 50 км 8/8 600 м
[Sc]
+16.5 +8.4 59 +16 +17 1000.9 914.4
06 14.07 Ю 3 50 км 8/8 600 м
[Sc]
+25.3 +8.2 34 +26 +28 жарко 998.6 914.7 +16.4
09 14.07 СВ 4 50 км 8/8 600 м
[Sc]
+23.0 +5.4 32 +23 +25 комфорт 998.9 914.3
12 14.07 Ю 2 50 км 6/6 600 м
[Sc]
+25.4 +6.8 30 +25 +27 комфорт 997.7 914.0
15 14.07 ЮВ 3 50 км 6/6 600 м
[Sc]
+23.0 +6.0 33 +23 +23 комфорт 998.5 913.9 +25.5
18 14.07 Ю 2 н/о 4/4 600 м
[Sc]
+19.5 +4.9 38 +21 +21 комфорт 1000.0 914.3 +25.5
21 14.07 ЮЗ 1 н/о ясно +17.4 +3.9 41 +18 +18 1000.6 914.2
00 15.07 ЮЗ 1 50 км 4/4
[Sc]
+14.0 +1.1 41 +15 +15 1002.2 914.7
06 15.07 СЗ 4 50 км 5/0
[Ac As]
+24.0 +9.9 41 +25 +32 комфорт 1000.6 916.2 +14.0
09 15.07 С 8 20 км в посл. час гроза {ливн. осадки} 8/8 600 м
[Cb cap]
+20.0 +12.0 60 +21 +22 комфорт 1000.1 917.2
12 15.07 Ю 5 20 км {гроза} 8/8 600 м
[Cb calv]
+16.0 +13.1 83 +15 +15 1005.1 918.2
18 15.07 штиль 0 н/о ясно +12.0 +18.1 100 +11 +11 1005.2 917.0 +24.0 9
21 15.07 штиль 0 н/о ясно +10.0 +5.9 76 +9 +9 1003.8 915.0
00 16.07 штиль 0 50 км ясно +10.9 +6.9 76 +10 +11 1003.3 914.9
06 16.07 З 2 50 км 4/0
[Ac und]
+22.0 +9.7 46 +24 +36 комфорт 1000.8 915.9 +10.0
09 16.07 С 2 50 км 8/0
[Ac und]
+25.0 +11.8 44 +27 +33 жарко 999.6 915.6
12 16.07 С 3 50 км 4/0
[Ac und]
+23.0 +12.3 51 +26 +28 жарко 1000.4 915.8
15 16.07 СВ 2 50 км ясно +20.2 +11.5 57 +23 +23 комфорт 1002.8 917.2 +25.2
18 16.07 штиль 0 н/о ясно +18.0 +9.2 56 +18 +18 1004.4 918.0 +25.2
21 16.07 штиль 0 н/о ясно +14.0 +6.2 59 +14 +14 1005.9 918.1
00 17.07 штиль 0 50 км ясно +10.0 +3.9 66 +10 +10 1007.7 918.6
06 17.07 В 3 50 км 8/0
[Ac As]
+22.0 +10.8 49 +24 +30 комфорт 1005.7 920.4 +9.9
09 17.07 СВ 4 50 км 6/0
[Ac trans]
+25.0 +11.1 42 +26 +32 жарко 1003.9 919.5
12 17.07 СВ 5 50 км 3/0
[Ac trans]
+25.5 +10.9 40 +27 +28 жарко 1004.6 920.3
15 17.07 СВ 3 50 км ясно +22.0 +10.3 47 +24 +24 комфорт 1007.5 921.9 +25.7
18 17.07 СВ 1 н/о ясно +15.0 +5.5 53 +16 +16 1011.1 923.2 +25.7
21 17.07 СВ 2 н/о ясно +11.0 +2.5 56 +10 +10 1012.7 923.4
00 18.07 СЗ 2 50 км ясно +8.0 +2.3 67 +6 +7 1014.8 924.4
06 18.07 СЗ 3 50 км ясно +22.6 +7.8 39 +24 +38 комфорт 1011.1 925.4 +7.9
09 18.07 СЗ 2 50 км ясно +24.5 +6.3 31 +24 +39 комфорт 1009.7 924.6
12 18.07 С 3 50 км ясно +25.3 +6.0 29 +25 +28 комфорт 1009.8 924.8
15 18.07 С 3 50 км ясно +22.3 +5.8 34 +23 +23 комфорт 1011.6 925.7 +25.8
18 18.07 С 1 н/о ясно +15.0 +3.6 46 +16 +16 1014.2 926.0 +25.8
21 18.07 штиль 0 н/о ясно +13.0 +2.8 50 +13 +13 1014.3 925.5
00 19.07 З 1 50 км ясно +11.0 +2.0 54 +11 +11 1015.6 926.1
06 19.07 СЗ 3 50 км ясно +24.8 +6.5 31 +25 +39 комфорт 1011.4 926.2 +10.9
09 19.07 СЗ 3 50 км ясно +26.0 +7.9 32 +26 +38 жарко 1011.0 926.2
12 19.07 СЗ 4 50 км ясно +25.7 +5.5 27 +25 +28 комфорт 1010.9 926.0

 

Местоположение метеостанции Актогай (Карагандинская область, Казахстан): широта 48.30 долгота 74.97 высота над уровнем моря 780 м.

В архиве по умолчанию представлена погода в Актогае за последнюю неделю. Архивные данные за месяц целиком и за предыдущие месяцы, начиная с января 2011 года, Вы можете получить, выбрав интересующий диапазон дат из раскрывающегося списка и нажав кнопку "Ввод!".


*Определитесь, кто Вы:
робот инопланетянин человек

Внимание! Время в таблицах - всемирное. Для получения местного времени необходимо прибавить поправку, которая в Актогае равна 5 ч.

Смотрите также архив погоды в соседних городах и на ближайших метеорологических станциях:

Погода в Бектау-Ате (Карагандинская область, Казахстан) (95 км)
Погода в Аксу-Аюлы (Карагандинская область, Казахстан) (102 км)
Погода в Бесобе (Карагандинская область, Казахстан) (122 км)
Погода в Каркаралинске (Карагандинская область, Казахстан) (127 км)
Погода в Агадыре (Карагандинская область, Казахстан) (155 км)
Погода в Жарыке (Карагандинская область, Казахстан) (166 км)
Погода в Балхаше (Карагандинская область, Казахстан) (167 км)
Погода в Моинты (Карагандинская область, Казахстан) (170 км)
Погода в Егиндыбулаке (Карагандинская область, Казахстан) (195 км)
Погода в Кайнаре (Восточно-Казахстанская область, Казахстан) (202 км)

Пояснения к столбцам:

Ветер - указаны скорость ветра в м/с - средняя за 10 мин, порывы в срок и между сроками (в фигурных скобках) и направление, откуда дует ветер: С - северный, СВ - северо-восточный, В - восточный, ЮВ - юго-восточный, Ю - южный, ЮЗ - юго-западный, З - западный, СЗ - северо-западный.
Видимость - горизонтальная дальность видимости в метрах или километрах. При видимости от 1 до 10 км при отсутствии осадков обычно наблюдается дымка, при ухудшении видимости до 1 км и менее - туман. В сухую погоду видимость может ухудшаться дымом, пылью или мглою.
Явления - указаны атмосферные явления, наблюдавшиеся в срок или в последний час перед сроком; фигурными скобками обозначены явления, наблюдавшиеся между сроками (за 1-3 часа до срока); квадратными скобками обозначены град или гололедные отложения с указанием их диаметра в мм.
Облачность - указаны через наклонную черту общая и нижняя облачность в баллах и высота нижней границы облаков в метрах; квадратными скобками обозначены формы облаков: Ci - перистые, Cs - перисто-слоистые, Cc - перисто-кучевые, Ac - высококучевые, As - высокослоистые, Sc - слоисто-кучевые, Ns - слоисто-дождевые, Cu - кучевые, Cb - кучево-дождевые. Подробнее классификацию облаков см. в Атласе облаков (PDF).
T - Температура воздуха - температура, измеренная на высоте 2 м над землей.
Td - Температура точки росы - температура, при понижении до которой содержащийся в воздухе водяной пар достигнет насыщения.
f - Относительная влажность воздуха - влажноcть воздуха, измеренная на высоте 2 м над землей.
Te - Эффективная температура - температура, которую ощущает одетый по сезону человек в тени. Характеристика душности погоды. При расчете учитывается влияние влажности воздуха и скорости ветра на теплоощущения человека.
Tes - Эффективная температура на солнце - температура, которую ощущает человек, с поправкой на солнечный нагрев. Характеристика знойности погоды. Зависит от высоты солнца над горизонтом, облачности и скорости ветра. Ночью, в пасмурную погоду, а также при ветре 12 м/с и более поправка равна нулю.
P - Атмосферное давление - приведенное к уровню моря атмосферное давление.
Po - Атмосферное давление - измеренное на уровне метеостанции атмосферное давление.
Tmin - Минимальная температура - минимум температуры воздуха на высоте 2 м над землей.
Tmax - Максимальная температура - максимум температуры воздуха на высоте 2 м над землей.
R - Количество осадков - Количество выпавших осадков за период времени, мм. При наведении курсора мыши на число - период времени, за который выпало указанное количество осадков.
R24 - Количество осадков - Количество выпавших осадков за 24 часа, мм.
S - Снежный покров - Высота снежного покрова, см. При наведении курсора мыши на число - состояние снежного покрова и степень покрытия местности в баллах.